AAL317 EGLL-TNCA

Flight info

Callsign AAL317
Flight time N/A
Altitude 32000
Route GASGU N514 ADKIK DCT JOZMA DCT GAPLI/M085F320 DCT OMOKO DCT 47N020W 43N030W/M085F340 40N035W 37N040W 33N045W/M085F360 29N050W 25N055W DCT RKDIA M576 OBIKE/N0498F360 L335 TRNKY/N0488F380 L335 SCAPA DCT BOSCO UL325 BEXER UG885 ONDAS G885 ABA A574 DATOR DATOR2A
Aircraft B77W/H-SDE1E2E3FGHIJ2J3J4J5M1RWXY/LB1D1

Departure

Time N/A
Airport London Heathrow Airport (EGLL)

Arrival

Time 2026-04-27 01:42
Airport Queen Beatrix International Airport (TNCA)
Time Latitude Longitude Altitude Speed Heading
2026-04-27 00:57 13.88825 -68.81042 35952 ft 469 kts
2026-04-27 00:57 13.92014 -68.80358 35957 ft 472 kts 19°
2026-04-27 00:57 13.94993 -68.78953 35946 ft 473 kts 33°
2026-04-27 00:58 13.97526 -68.76859 35962 ft 471 kts 47°
2026-04-27 00:58 14.01991 -68.71869 35962 ft 475 kts 49°
2026-04-27 00:59 14.06639 -68.66997 35963 ft 478 kts 45°
2026-04-27 00:59 14.11426 -68.62208 35959 ft 480 kts 46°
2026-04-27 01:00 14.16021 -68.57280 35943 ft 478 kts 55°
2026-04-27 01:00 14.17601 -68.54279 35956 ft 468 kts 76°
2026-04-27 01:00 14.18076 -68.51027 35952 ft 456 kts 97°
2026-04-27 01:00 14.17507 -68.47894 35962 ft 445 kts 114°
2026-04-27 01:01 14.16221 -68.45037 35962 ft 438 kts 125°
2026-04-27 01:01 14.14469 -68.42483 35946 ft 432 kts 136°
2026-04-27 01:01 14.12256 -68.40450 35948 ft 424 kts 151°
2026-04-27 01:01 14.09648 -68.39118 35955 ft 417 kts 166°
2026-04-27 01:02 14.06809 -68.38567 35959 ft 412 kts 180°
2026-04-27 01:02 14.03970 -68.38774 35963 ft 410 kts 193°
2026-04-27 01:02 14.01250 -68.39616 35967 ft 410 kts 203°
2026-04-27 01:02 13.98708 -68.40932 35953 ft 411 kts 214°
2026-04-27 01:03 13.96552 -68.42886 35971 ft 413 kts 225°
2026-04-27 01:03 13.92652 -68.47279 35964 ft 417 kts 225°
2026-04-27 01:04 13.88561 -68.51472 35963 ft 418 kts 223°
2026-04-27 01:04 13.84380 -68.55671 35950 ft 420 kts 224°
2026-04-27 01:05 13.80252 -68.59929 35940 ft 419 kts 224°
2026-04-27 01:05 13.77093 -68.64893 35954 ft 422 kts 253°
2026-04-27 01:05 13.76742 -68.67888 35955 ft 427 kts 269°
2026-04-27 01:06 13.77108 -68.70901 35966 ft 431 kts 279°
2026-04-27 01:06 13.78005 -68.73891 35951 ft 436 kts 290°
2026-04-27 01:06 13.79559 -68.76586 35945 ft 444 kts 306°
2026-04-27 01:06 13.81807 -68.78751 35956 ft 452 kts 323°
2026-04-27 01:07 13.84632 -68.80194 35959 ft 459 kts 341°
2026-04-27 01:07 13.87783 -68.80779 35961 ft 465 kts 357°
2026-04-27 01:07 13.91027 -68.80452 35962 ft 470 kts 14°
2026-04-27 01:07 13.94091 -68.79298 35963 ft 472 kts 28°
2026-04-27 01:08 13.96794 -68.77372 35950 ft 471 kts 46°
2026-04-27 01:08 14.01277 -68.72409 35959 ft 475 kts 49°
2026-04-27 01:09 14.05878 -68.67534 35966 ft 479 kts 45°
2026-04-27 01:09 14.10686 -68.62735 35958 ft 482 kts 46°
2026-04-27 01:10 14.15144 -68.57618 35930 ft 476 kts 63°
2026-04-27 01:10 14.16285 -68.54485 35962 ft 465 kts 84°
2026-04-27 01:10 14.16316 -68.51204 35943 ft 451 kts 105°
2026-04-27 01:10 14.15283 -68.48224 35959 ft 438 kts 123°
2026-04-27 01:11 14.13614 -68.45637 35956 ft 432 kts 134°
2026-04-27 01:11 14.09119 -68.41699 35942 ft 421 kts 157°
2026-04-27 01:11 14.06370 -68.40678 35956 ft 415 kts 172°
2026-04-27 01:12 14.03514 -68.40461 35959 ft 411 kts 186°
2026-04-27 01:12 14.00712 -68.41008 35968 ft 409 kts 199°
2026-04-27 01:12 13.98066 -68.42103 35964 ft 413 kts 207°
2026-04-27 01:13 13.93163 -68.45347 35969 ft 431 kts 218°
2026-04-27 01:13 13.88728 -68.49697 35966 ft 446 kts 225°
2026-04-27 01:14 13.84435 -68.54401 35968 ft 460 kts 225°
2026-04-27 01:14 13.79970 -68.59240 35963 ft 470 kts 225°
2026-04-27 01:15 13.75439 -68.64067 35946 ft 468 kts 225°
2026-04-27 01:15 13.70912 -68.68860 35956 ft 465 kts 225°
2026-04-27 01:16 13.66408 -68.73632 35960 ft 464 kts 225°
2026-04-27 01:16 13.64156 -68.76022 35614 ft 469 kts 225°
2026-04-27 01:16 13.61854 -68.78461 34737 ft 477 kts 225°
2026-04-27 01:16 13.59544 -68.80911 33816 ft 477 kts 225°
2026-04-27 01:17 13.57231 -68.83363 32866 ft 478 kts 225°
2026-04-27 01:17 13.54906 -68.85826 31865 ft 480 kts 225°
2026-04-27 01:17 13.52575 -68.88294 30821 ft 482 kts 226°
2026-04-27 01:17 13.50252 -68.90752 30076 ft 478 kts 226°
2026-04-27 01:18 13.47939 -68.93201 29337 ft 475 kts 226°
2026-04-27 01:18 13.45648 -68.95629 28587 ft 472 kts 226°
2026-04-27 01:18 13.43378 -68.98035 27874 ft 468 kts 226°
2026-04-27 01:18 13.41120 -69.00429 27167 ft 465 kts 226°
2026-04-27 01:19 13.38904 -69.02777 26472 ft 462 kts 226°
2026-04-27 01:19 13.36675 -69.05138 25776 ft 458 kts 226°
2026-04-27 01:19 13.34463 -69.07479 25081 ft 455 kts 226°
2026-04-27 01:19 13.32264 -69.09804 24394 ft 452 kts 225°
2026-04-27 01:20 13.30073 -69.12117 23725 ft 449 kts 225°
2026-04-27 01:20 13.27898 -69.14399 23046 ft 447 kts 225°
2026-04-27 01:20 13.25716 -69.16662 22373 ft 443 kts 225°
2026-04-27 01:20 13.23544 -69.18903 21718 ft 440 kts 225°
2026-04-27 01:21 13.21390 -69.21122 21057 ft 437 kts 225°
2026-04-27 01:21 13.19252 -69.23327 20417 ft 434 kts 225°
2026-04-27 01:21 13.17130 -69.25519 19774 ft 431 kts 225°
2026-04-27 01:21 13.15047 -69.27673 19144 ft 429 kts 225°
2026-04-27 01:22 13.13634 -69.29135 18711 ft 427 kts 225°
2026-04-27 01:22 13.11550 -69.31292 18080 ft 424 kts 225°
2026-04-27 01:22 13.08810 -69.34127 17249 ft 421 kts 225°
2026-04-27 01:22 13.06755 -69.36253 16618 ft 419 kts 225°
2026-04-27 01:23 13.04711 -69.38367 15993 ft 416 kts 225°
2026-04-27 01:23 13.03330 -69.39795 15571 ft 415 kts 225°
2026-04-27 01:23 13.01327 -69.41869 14956 ft 413 kts 225°
2026-04-27 01:23 12.99315 -69.43957 14389 ft 409 kts 225°
2026-04-27 01:24 12.97321 -69.46026 13798 ft 406 kts 225°
2026-04-27 01:24 12.95334 -69.48086 13229 ft 404 kts 225°
2026-04-27 01:24 12.93381 -69.50122 12590 ft 404 kts 224°
2026-04-27 01:24 12.91390 -69.52214 12196 ft 418 kts 224°
2026-04-27 01:25 12.89384 -69.54305 12016 ft 395 kts 224°
2026-04-27 01:25 12.87505 -69.56240 11461 ft 368 kts 224°
2026-04-27 01:25 12.85779 -69.58008 11255 ft 334 kts 224°
2026-04-27 01:25 12.84205 -69.59623 10972 ft 308 kts 224°
2026-04-27 01:26 12.82727 -69.61144 10566 ft 300 kts 224°
2026-04-27 01:26 12.81277 -69.62641 10404 ft 292 kts 224°
2026-04-27 01:26 12.79884 -69.64082 10263 ft 283 kts 224°
2026-04-27 01:26 12.78519 -69.65494 10133 ft 274 kts 224°
2026-04-27 01:27 12.77183 -69.66874 10045 ft 275 kts 224°
2026-04-27 01:27 12.75928 -69.68435 9951 ft 288 kts 244°
2026-04-27 01:27 12.75367 -69.70392 9968 ft 289 kts 258°
2026-04-27 01:27 12.75013 -69.72409 9881 ft 295 kts 259°
2026-04-27 01:28 12.74638 -69.74537 9257 ft 307 kts 258°
2026-04-27 01:28 12.74191 -69.76703 8637 ft 316 kts 257°
2026-04-27 01:28 12.73700 -69.78922 8120 ft 320 kts 256°
2026-04-27 01:28 12.73200 -69.81144 7683 ft 321 kts 256°
2026-04-27 01:29 12.72698 -69.83373 7241 ft 322 kts 256°
2026-04-27 01:29 12.72200 -69.85610 6789 ft 323 kts 256°
2026-04-27 01:29 12.71703 -69.87850 6348 ft 322 kts 256°
2026-04-27 01:29 12.71212 -69.90072 6063 ft 316 kts 256°
2026-04-27 01:30 12.70735 -69.92247 5808 ft 309 kts 256°
2026-04-27 01:30 12.70266 -69.94375 5545 ft 304 kts 256°
2026-04-27 01:30 12.69809 -69.96465 5279 ft 298 kts 256°
2026-04-27 01:30 12.69358 -69.98521 5015 ft 294 kts 256°
2026-04-27 01:31 12.68913 -70.00549 4770 ft 290 kts 256°
2026-04-27 01:31 12.68475 -70.02556 4508 ft 286 kts 257°
2026-04-27 01:31 12.68044 -70.04535 4244 ft 281 kts 256°
2026-04-27 01:31 12.67621 -70.06454 4028 ft 276 kts 256°
2026-04-27 01:32 12.67209 -70.08331 3958 ft 267 kts 256°
2026-04-27 01:32 12.66800 -70.10194 3944 ft 269 kts 256°
2026-04-27 01:32 12.66393 -70.12056 3940 ft 267 kts 256°
2026-04-27 01:32 12.65979 -70.13905 3933 ft 266 kts 256°
2026-04-27 01:33 12.65550 -70.15745 3936 ft 265 kts 255°
2026-04-27 01:33 12.65121 -70.17573 3937 ft 263 kts 255°
2026-04-27 01:33 12.64690 -70.19401 3934 ft 264 kts 255°
2026-04-27 01:33 12.64257 -70.21236 3894 ft 266 kts 255°
2026-04-27 01:34 12.63828 -70.23062 3672 ft 263 kts 255°
2026-04-27 01:34 12.63398 -70.24884 3373 ft 263 kts 255°
2026-04-27 01:34 12.62973 -70.26700 3065 ft 261 kts 255°
2026-04-27 01:34 12.62295 -70.28378 2729 ft 253 kts 228°
2026-04-27 01:35 12.60993 -70.29468 2422 ft 240 kts 204°
2026-04-27 01:35 12.59478 -70.30025 2116 ft 225 kts 177°
2026-04-27 01:35 12.58079 -70.29677 2044 ft 195 kts 140°
2026-04-27 01:35 12.57307 -70.28651 2072 ft 181 kts 111°
2026-04-27 01:36 12.56804 -70.27459 2046 ft 181 kts 110°
2026-04-27 01:36 12.56349 -70.26291 2050 ft 174 kts 109°
2026-04-27 01:36 12.55913 -70.25132 2032 ft 175 kts 107°
2026-04-27 01:36 12.55539 -70.23941 2016 ft 175 kts 104°
2026-04-27 01:37 12.55218 -70.22739 2005 ft 174 kts 103°
2026-04-27 01:37 12.54923 -70.21548 2001 ft 169 kts 102°
2026-04-27 01:37 12.54647 -70.20405 2002 ft 162 kts 102°
2026-04-27 01:37 12.54377 -70.19277 2017 ft 165 kts 102°
2026-04-27 01:38 12.54104 -70.18133 2033 ft 167 kts 102°
2026-04-27 01:38 12.53828 -70.16974 2036 ft 169 kts 102°
2026-04-27 01:38 12.53551 -70.15807 2016 ft 165 kts 102°
2026-04-27 01:38 12.53285 -70.14703 2001 ft 155 kts 101°
2026-04-27 01:39 12.53041 -70.13667 2007 ft 149 kts 101°
2026-04-27 01:39 12.52794 -70.12636 1981 ft 153 kts 101°
2026-04-27 01:39 12.52535 -70.11561 1751 ft 155 kts 101°
2026-04-27 01:39 12.52281 -70.10499 1518 ft 155 kts 102°
2026-04-27 01:40 12.52015 -70.09447 1313 ft 151 kts 102°
2026-04-27 01:40 12.51761 -70.08401 1212 ft 152 kts 101°
2026-04-27 01:40 12.51526 -70.07333 987 ft 154 kts 100°
2026-04-27 01:40 12.51270 -70.06292 724 ft 147 kts 103°
2026-04-27 01:41 12.51034 -70.05306 532 ft 140 kts 101°
2026-04-27 01:41 12.50812 -70.04342 374 ft 140 kts 102°
2026-04-27 01:41 12.50576 -70.03374 198 ft 144 kts 102°
2026-04-27 01:41 12.50347 -70.02384 50 ft 138 kts 102°
2026-04-27 01:42 12.50152 -70.01527 49 ft 101 kts 104°
2026-04-27 01:42 12.50009 -70.00975 48 ft 75 kts 104°
2026-04-27 01:42 12.49912 -70.00552 60 ft 45 kts 103°
2026-04-27 01:42 12.49912 -70.00344 63 ft 16 kts 88°
2026-04-27 01:43 12.49848 -70.00323 64 ft 11 kts 241°
2026-04-27 01:43 12.49873 -70.00419 62 ft 25 kts 289°
2026-04-27 01:43 12.49935 -70.00659 56 ft 23 kts 285°
2026-04-27 01:43 12.49995 -70.00705 54 ft 14 kts 10°
2026-04-27 01:44 12.50124 -70.00677 48 ft 14 kts 12°
2026-04-27 01:44 12.50191 -70.00713 47 ft 10 kts 349°
2026-04-27 01:44 12.50230 -70.00708 48 ft 5 kts
2026-04-27 01:44 12.50238 -70.00707 51 ft 1 kts
2026-04-27 01:45 12.50242 -70.00706 51 ft 0 kts 10°